| time (UTC) | temp F | wind direction | speed knots | gust knots | rain 1hr in | rain 24hr in | rain mn in | humidity % | barometer mb |
| 20260507040058 | 55 | 355 | 7.8 | 9.6 | 0.00 | 0.64 | 0.00 | 81 | 1011.6 |
| 20260507034556 | 55 | 347 | 2.6 | 8.7 | 0.00 | 0.64 | 0.64 | 81 | 1011.7 |
| 20260507033058 | 55 | 352 | 5.2 | 9.6 | 0.00 | 0.64 | 0.64 | 80 | 1011.5 |
| 20260507031556 | 56 | 347 | 7.0 | 13.9 | 0.00 | 0.64 | 0.64 | 80 | 1011.1 |
| 20260507030056 | 56 | 354 | 7.0 | 13.0 | 0.00 | 0.64 | 0.64 | 80 | 1011.3 |
| 20260507024553 | 56 | 18 | 6.1 | 11.3 | 0.00 | 0.64 | 0.64 | 80 | 1011.2 |
| 20260507023056 | 57 | 1 | 6.1 | 11.3 | 0.00 | 0.64 | 0.64 | 80 | 1011.1 |
| 20260507021557 | 58 | 27 | 7.8 | 13.9 | 0.00 | 0.64 | 0.64 | 80 | 1010.9 |
| 20260507020115 | 59 | 10 | 7.0 | 10.4 | 0.00 | 0.64 | 0.64 | 79 | 1011.0 |
| 20260507014559 | 59 | 23 | 0.9 | 6.1 | 0.00 | 0.64 | 0.64 | 79 | 1011.0 |
| 20260507013055 | 59 | 12 | 1.7 | 9.6 | 0.00 | 0.64 | 0.64 | 79 | 1011.0 |
| 20260507011556 | 59 | 309 | 0.0 | 7.8 | 0.00 | 0.64 | 0.64 | 80 | 1010.9 |
| 20260507010106 | 60 | 27 | 2.6 | 5.2 | 0.00 | 0.64 | 0.64 | 80 | 1010.8 |
| 20260507004557 | 60 | 277 | 0.9 | 5.2 | 0.00 | 0.64 | 0.64 | 80 | 1010.7 |
| 20260507003056 | 60 | 307 | 0.0 | 3.5 | 0.00 | 0.64 | 0.64 | 80 | 1010.1 |
| 20260507001558 | 60 | 85 | 1.7 | 4.3 | 0.00 | 0.64 | 0.64 | 80 | 1010.1 |
| 20260507000054 | 61 | 0 | 0.0 | 4.3 | 0.00 | 0.64 | 0.64 | 81 | 1009.7 |
| 20260506234600 | 61 | 269 | 1.7 | 6.1 | 0.00 | 0.64 | 0.64 | 82 | 1009.1 |
| 20260506233058 | 62 | 11 | 1.7 | 6.1 | 0.00 | 0.64 | 0.64 | 84 | 1008.7 |
| 20260506231608 | 62 | 348 | 2.6 | 8.7 | 0.05 | 0.64 | 0.64 | 84 | 1008.8 |
| 20260506230121 | 63 | 333 | 4.3 | 9.6 | 0.07 | 0.64 | 0.64 | 85 | 1008.6 |
| 20260506224557 | 64 | 266 | 1.7 | 3.5 | 0.07 | 0.64 | 0.64 | 87 | 1008.5 |
| 20260506223057 | 65 | 271 | 0.9 | 5.2 | 0.07 | 0.64 | 0.64 | 85 | 1008.4 |
| 20260506221633 | 65 | 237 | 4.3 | 10.4 | 0.02 | 0.58 | 0.58 | 84 | 1008.2 |
| 20260506220129 | 66 | 237 | 7.0 | 10.4 | 0.00 | 0.57 | 0.57 | 82 | 1007.8 |
| 20260506214602 | 66 | 224 | 5.2 | 7.8 | 0.00 | 0.57 | 0.57 | 81 | 1007.8 |
| 20260506213111 | 67 | 243 | 5.2 | 9.6 | 0.00 | 0.57 | 0.57 | 81 | 1007.5 |
| 20260506211601 | 67 | 260 | 3.5 | 7.8 | 0.00 | 0.57 | 0.57 | 81 | 1007.4 |
| 20260506210107 | 67 | 259 | 4.3 | 7.8 | 0.00 | 0.57 | 0.57 | 81 | 1007.4 |
| 20260506204608 | 67 | 224 | 4.3 | 9.6 | 0.00 | 0.57 | 0.57 | 82 | 1007.4 |
| 20260506203102 | 67 | 239 | 3.5 | 8.7 | 0.00 | 0.57 | 0.57 | 81 | 1007.4 |
| 20260506201609 | 66 | 255 | 6.1 | 10.4 | 0.00 | 0.57 | 0.57 | 81 | 1007.3 |
| 20260506200058 | 66 | 250 | 5.2 | 8.7 | 0.00 | 0.57 | 0.57 | 82 | 1007.3 |
| 20260506194600 | 65 | 262 | 6.1 | 10.4 | 0.00 | 0.57 | 0.57 | 82 | 1007.6 |
| 20260506193059 | 65 | 237 | 3.5 | 8.7 | 0.00 | 0.57 | 0.57 | 84 | 1007.6 |
| 20260506191604 | 65 | 257 | 4.3 | 9.6 | 0.00 | 0.57 | 0.57 | 84 | 1007.7 |
| 20260506190100 | 64 | 257 | 6.1 | 9.6 | 0.00 | 0.57 | 0.57 | 85 | 1007.7 |
| 20260506184634 | 63 | 252 | 4.3 | 8.7 | 0.00 | 0.57 | 0.57 | 85 | 1007.9 |
| 20260506183114 | 63 | 250 | 5.2 | 9.6 | 0.00 | 0.57 | 0.57 | 86 | 1008.0 |
| 20260506181602 | 63 | 238 | 6.1 | 12.2 | 0.00 | 0.57 | 0.57 | 86 | 1008.1 |
| 20260506180100 | 63 | 217 | 5.2 | 12.2 | 0.00 | 0.57 | 0.57 | 87 | 1008.2 |
| 20260506174559 | 62 | 255 | 8.7 | 13.0 | 0.00 | 0.57 | 0.57 | 87 | 1008.2 |
| 20260506173100 | 62 | 248 | 7.8 | 12.2 | 0.00 | 0.57 | 0.57 | 87 | 1008.1 |
| 20260506171607 | 61 | 244 | 4.3 | 8.7 | 0.00 | 0.57 | 0.57 | 88 | 1008.2 |
| 20260506164600 | 61 | 233 | 6.1 | 9.6 | 0.00 | 0.57 | 0.57 | 89 | 1008.2 |
| 20260506163111 | 61 | 241 | 4.3 | 9.6 | 0.00 | 0.57 | 0.57 | 89 | 1008.3 |
| 20260506161601 | 61 | 215 | 7.0 | 10.4 | 0.01 | 0.57 | 0.57 | 89 | 1008.3 |
| 20260506160109 | 61 | 229 | 6.1 | 12.2 | 0.05 | 0.57 | 0.57 | 89 | 1008.4 |
| 20260506154559 | 61 | 240 | 5.2 | 13.0 | 0.09 | 0.57 | 0.57 | 89 | 1008.5 |
| 20260506153055 | 60 | 218 | 6.1 | 10.4 | 0.19 | 0.57 | 0.57 | 90 | 1008.2 |
| 20260506151559 | 60 | 244 | 5.2 | 11.3 | 0.30 | 0.56 | 0.56 | 90 | 1008.2 |
| 20260506144603 | 60 | 217 | 6.1 | 8.7 | 0.27 | 0.48 | 0.48 | 90 | 1009.1 |
| 20260506143055 | 61 | 261 | 6.1 | 13.0 | 0.24 | 0.37 | 0.37 | 89 | 1009.5 |
| 20260506141559 | 61 | 245 | 6.1 | 10.4 | 0.17 | 0.26 | 0.26 | 88 | 1009.1 |
| 20260506140055 | 61 | 214 | 3.5 | 8.7 | 0.16 | 0.25 | 0.25 | 88 | 1008.8 |
| 20260506134601 | 61 | 206 | 2.6 | 7.0 | 0.13 | 0.21 | 0.21 | 87 | 1008.6 |
| 20260506133056 | 61 | 226 | 4.3 | 7.8 | 0.06 | 0.13 | 0.13 | 85 | 1008.9 |
| 20260506131607 | 61 | 240 | 4.3 | 9.6 | 0.04 | 0.09 | 0.09 | 85 | 1008.8 |
| 20260506130056 | 62 | 229 | 5.2 | 8.7 | 0.06 | 0.09 | 0.09 | 84 | 1008.6 |
| 20260506124555 | 62 | 221 | 5.2 | 10.4 | 0.06 | 0.08 | 0.08 | 84 | 1008.8 |
| 20260506123057 | 62 | 232 | 5.2 | 8.7 | 0.06 | 0.07 | 0.07 | 82 | 1008.9 |
| 20260506121559 | 62 | 250 | 5.2 | 9.6 | 0.05 | 0.05 | 0.05 | 81 | 1009.3 |
| 20260506114558 | 63 | 249 | 3.5 | 7.0 | 0.02 | 0.02 | 0.02 | 77 | 1009.0 |
| 20260506113054 | 64 | 229 | 2.6 | 7.0 | 0.01 | 0.01 | 0.01 | 75 | 1008.7 |
| 20260506111556 | 65 | 237 | 3.5 | 10.4 | 0.00 | 0.00 | 0.00 | 72 | 1008.7 |
| 20260506110058 | 66 | 233 | 6.1 | 10.4 | 0.00 | 0.00 | 0.00 | 68 | 1008.3 |
| 20260506104558 | 66 | 238 | 5.2 | 8.7 | 0.00 | 0.00 | 0.00 | 68 | 1008.3 |
| 20260506103103 | 66 | 229 | 5.2 | 9.6 | 0.00 | 0.00 | 0.00 | 68 | 1008.2 |
| 20260506101555 | 66 | 244 | 4.3 | 8.7 | 0.00 | 0.00 | 0.00 | 67 | 1007.9 |
| 20260506100109 | 67 | 236 | 4.3 | 10.4 | 0.00 | 0.00 | 0.00 | 65 | 1007.9 |
| 20260506094556 | 67 | 211 | 7.0 | 12.2 | 0.00 | 0.00 | 0.00 | 64 | 1007.8 |
| 20260506093059 | 68 | 221 | 7.0 | 12.2 | 0.00 | 0.00 | 0.00 | 63 | 1007.9 |
| 20260506091558 | 68 | 205 | 7.8 | 13.9 | 0.00 | 0.00 | 0.00 | 62 | 1008.0 |
| 20260506090055 | 68 | 234 | 7.0 | 10.4 | 0.00 | 0.00 | 0.00 | 62 | 1008.1 |
| 20260506084603 | 68 | 222 | 7.8 | 13.0 | 0.00 | 0.00 | 0.00 | 61 | 1008.2 |
| 20260506083101 | 68 | 200 | 7.0 | 11.3 | 0.00 | 0.00 | 0.00 | 60 | 1008.1 |
| 20260506081556 | 69 | 235 | 7.0 | 10.4 | 0.00 | 0.00 | 0.00 | 59 | 1008.1 |
| 20260506073056 | 70 | 240 | 7.0 | 13.9 | 0.00 | 0.00 | 0.00 | 57 | 1008.0 |
| 20260506071559 | 70 | 236 | 6.1 | 13.0 | 0.00 | 0.00 | 0.00 | 56 | 1008.1 |
| 20260506061556 | 69 | 228 | 7.0 | 10.4 | 0.00 | 0.00 | 0.00 | 54 | 1008.9 |
| 20260506044554 | 70 | 232 | 6.1 | 9.6 | 0.00 | 0.00 | 0.00 | 48 | 1009.4 |
| 20260506043056 | 70 | 217 | 5.2 | 8.7 | 0.00 | 0.00 | 0.00 | 47 | 1009.3 |
| 20260506041559 | 70 | 221 | 7.0 | 11.3 | 0.00 | 0.00 | 0.00 | 46 | 1009.3 |